Location: Newark
(54.4000°N, 32.4500°E)
Time: 19:03:24
(UTC+00:00)

Envisat - Pass Details

Date: 26 January 2020
Orbit: 764 x 766 km, 98.1° (Epoch: 22 February)

Event Time Altitude Azimuth Distance (km) Brightness Sun altitude
Rises 16:53:15 0° 209° (SSW) 3,225 6.6 -22.4°
Reaches altitude 10° 16:56:11 10° 227° (SW) 2,304 6.1 -22.9°
Maximum altitude 16:59:48 19° 272° (W) 1,753 5.7 -23.4°
Drops below altitude 10° 17:03:26 10° 318° (NW) 2,316 6.0 -23.9°
Sets 17:06:25 0° 336° (NNW) 3,248 6.6 -24.3°
